User: anonymous   Login
Location: Unspecified
(0.0000°N, 0.0000°E)
Time: 10:23:54
(UTC+00:00)
Language:

Orbcomm G2 (FM04) - Orbit

View from above orbital plane
View from above orbital plane
View from above satellite
View from above satellite

Ground track
Ground track

The orbit data is extracted from the following two-line orbital elements,

1 25159U 98007C   24110.62658495  .00003181  00000-0  12108-2 0  9996
2 25159 107.9733 349.9112 0044409 266.7555  92.8502 14.32316229363528
Epoch (UTC): 19 April 2024 15:02:16
Eccentricity: 0.0044409
inclination: 107.9733°
perigee height: 752 km
apogee height: 816 km
right ascension of ascending node: 349.9112°
argument of perigee: 266.7555°
revolutions per day: 14.32316229
mean anomaly at epoch: 92.8502°
orbit number at epoch: 36352

The dashed part of the orbit path shows where the satellite is in the earth's shadow,  

DLR